{"data":{"norad_id":65697,"intl_designator":"2025-212X","name":"STARLINK-35113","alt_names":[],"object_type":"PAYLOAD","status":"ACTIVE","operator":null,"country":"US","launch_date":"2025-09-21","launch_site_code":"AFETR","launch_vehicle":null,"mission":null,"orbit_class":"UNKNOWN","rcs_meters":null,"size_class":null,"mass_kg":null,"dimensions":null,"purposes":["comms"],"wikipedia_slug":null,"has_3d_model":false,"image_url":null,"decayed_at":null,"tle_current":{"epoch":"2026-05-24T20:41:21.818976Z","epoch_age_seconds":90061,"freshness":"FRESH","line1":"1 65697U 25212X   26144.86205809  .00023434  00000+0  70206-3 0  9993","line2":"2 65697  53.1602 350.6006 0002021 101.7990 258.3239 15.34420181 38927","mean_motion":15.34420181,"eccentricity":0.0002021,"inclination_deg":53.1602,"raan_deg":350.6006,"arg_perigee_deg":101.799,"mean_anomaly_deg":258.3239,"bstar":0.00070206,"rev_number":3892,"period_min":93.846523776918,"perigee_km":461.26073698929,"apogee_km":464.02578036985,"semimajor_km":6840.7802586796,"source":"CELESTRAK","updated_at":"2026-05-25T13:38:20.898231Z"}}}